Tiempo cada hora Abdrahimovo

Hoy, 24 Octubre, Sábado

Tiempo Temperatura Precipitaciones Viento Presión Humedad
00:00 -5°C° 0 mm 3 mps 744 mmHg 83%
01:00 -5°C° 0 mm 4 mps 743 mmHg 82%
02:00 -5°C° 0.1 mm 4 mps 743 mmHg 86%
03:00 -5°C° 0.1 mm 4 mps 742 mmHg 89%
04:00 -5°C° 0.1 mm 4 mps 741 mmHg 93%
05:00 -5°C° 0.3 mm 5 mps 740 mmHg 94%
06:00 -5°C° 0.3 mm 5 mps 739 mmHg 94%
07:00 -5°C° 0.3 mm 5 mps 738 mmHg 95%
08:00 -4°C° 0.2 mm 5 mps 738 mmHg 94%
09:00 -2°C° 0.2 mm 5 mps 737 mmHg 93%
10:00 -1°C° 0.2 mm 4 mps 736 mmHg 92%
11:00 -1°C° 0.6 mm 4 mps 736 mmHg 93%
12:00 0°C° 0.6 mm 4 mps 735 mmHg 94%
13:00 0°C° 0.6 mm 4 mps 734 mmHg 95%
14:00 +1°C° 0.8 mm 3 mps 734 mmHg 96%
15:00 +2°C° 0.8 mm 3 mps 733 mmHg 97%
16:00 +2°C° 0.8 mm 3 mps 733 mmHg 97%
17:00 +3°C° 0.8 mm 3 mps 733 mmHg 97%
18:00 +4°C° 0.8 mm 4 mps 733 mmHg 97%
19:00 +4°C° 0.8 mm 4 mps 733 mmHg 97%
20:00 +4°C° 0 mm 4 mps 734 mmHg 96%
21:00 +4°C° 0 mm 4 mps 734 mmHg 96%
22:00 +4°C° 0 mm 4 mps 735 mmHg 96%
23:00 +4°C° 0.1 mm 4 mps 735 mmHg 96%

Mañana, 25 Octubre, Domingo

Tiempo Temperatura Precipitaciones Viento Presión Humedad
00:00 +4°C° 0.1 mm 4 mps 735 mmHg 96%
01:00 +4°C° 0.1 mm 4 mps 736 mmHg 96%
02:00 +4°C° 0 mm 4 mps 736 mmHg 96%
03:00 +3°C° 0 mm 4 mps 736 mmHg 97%
04:00 +3°C° 0 mm 3 mps 737 mmHg 97%
05:00 +3°C° 0 mm 3 mps 737 mmHg 97%
06:00 +3°C° 0 mm 3 mps 737 mmHg 97%
07:00 +3°C° 0 mm 3 mps 737 mmHg 98%
08:00 +3°C° 0 mm 3 mps 738 mmHg 97%
09:00 +4°C° 0 mm 3 mps 738 mmHg 97%
10:00 +5°C° 0 mm 2 mps 738 mmHg 96%
11:00 +5°C° 0 mm 2 mps 738 mmHg 94%
12:00 +6°C° 0 mm 2 mps 738 mmHg 93%
13:00 +6°C° 0 mm 2 mps 738 mmHg 91%
14:00 +6°C° 0 mm 2 mps 738 mmHg 92%
15:00 +6°C° 0 mm 2 mps 738 mmHg 92%
16:00 +5°C° 0 mm 2 mps 738 mmHg 93%
17:00 +5°C° 0 mm 2 mps 738 mmHg 94%
18:00 +6°C° 0 mm 1 mps 737 mmHg 94%
19:00 +5°C° 0 mm 1 mps 737 mmHg 95%
20:00 +5°C° 0.2 mm 1 mps 736 mmHg 96%
21:00 +5°C° 0.2 mm 1 mps 736 mmHg 96%
22:00 +4°C° 0.2 mm 0 mps 736 mmHg 97%
23:00 +5°C° 0.5 mm 1 mps 735 mmHg 97%

Pasado mañana, 26 Octubre, Lunes

Tiempo Temperatura Precipitaciones Viento Presión Humedad
00:00 +4°C° 0.5 mm 2 mps 735 mmHg 97%
01:00 +3°C° 0.5 mm 3 mps 734 mmHg 97%
02:00 +2°C° 0.5 mm 3 mps 734 mmHg 97%
03:00 +2°C° 0.5 mm 3 mps 734 mmHg 97%
04:00 +1°C° 0.5 mm 4 mps 734 mmHg 97%
05:00 0°C° 0.3 mm 4 mps 734 mmHg 96%
06:00 0°C° 0.3 mm 4 mps 734 mmHg 96%
07:00 0°C° 0.3 mm 4 mps 735 mmHg 96%
08:00 0°C° 0.1 mm 4 mps 735 mmHg 94%
09:00 0°C° 0.1 mm 5 mps 735 mmHg 93%
10:00 0°C° 0.1 mm 5 mps 736 mmHg 91%
11:00 -1°C° 0.1 mm 5 mps 736 mmHg 87%
12:00 -2°C° 0.1 mm 6 mps 736 mmHg 83%
13:00 -3°C° 0.1 mm 6 mps 737 mmHg 79%
14:00 -3°C° 0 mm 6 mps 737 mmHg 79%
15:00 -3°C° 0 mm 6 mps 737 mmHg 79%
16:00 -4°C° 0 mm 6 mps 737 mmHg 78%
17:00 -4°C° 0 mm 6 mps 738 mmHg 81%
18:00 -4°C° 0 mm 6 mps 738 mmHg 83%
19:00 -4°C° 0 mm 6 mps 738 mmHg 86%
20:00 -4°C° 0.3 mm 7 mps 738 mmHg 88%
21:00 -4°C° 0.3 mm 7 mps 738 mmHg 90%
22:00 -5°C° 0.3 mm 8 mps 739 mmHg 92%
23:00 -5°C° 0.1 mm 8 mps 739 mmHg 90%

, 27 Octubre, Martes

Tiempo Temperatura Precipitaciones Viento Presión Humedad
00:00 -5°C° 0.1 mm 8 mps 740 mmHg 88%
01:00 -5°C° 0.1 mm 9 mps 740 mmHg 86%
02:00 -5°C° 0 mm 9 mps 741 mmHg 85%
03:00 -5°C° 0 mm 8 mps 741 mmHg 84%
04:00 -5°C° 0 mm 8 mps 742 mmHg 83%
05:00 -5°C° 0 mm 8 mps 743 mmHg 83%
06:00 -6°C° 0 mm 8 mps 743 mmHg 83%
07:00 -6°C° 0 mm 8 mps 744 mmHg 83%
08:00 -6°C° 0 mm 8 mps 744 mmHg 82%
09:00 -6°C° 0 mm 8 mps 745 mmHg 81%
10:00 -6°C° 0 mm 8 mps 745 mmHg 80%
11:00 -5°C° 0 mm 8 mps 746 mmHg 80%
12:00 -4°C° 0 mm 7 mps 747 mmHg 79%
13:00 -4°C° 0 mm 7 mps 747 mmHg 78%
14:00 -4°C° 0 mm 7 mps 748 mmHg 78%
15:00 -4°C° 0 mm 6 mps 749 mmHg 78%
16:00 -4°C° 0 mm 6 mps 749 mmHg 78%
17:00 -4°C° 0 mm 6 mps 750 mmHg 78%
18:00 -4°C° 0 mm 6 mps 750 mmHg 78%
19:00 -4°C° 0 mm 5 mps 751 mmHg 78%
20:00 -5°C° 0 mm 5 mps 752 mmHg 81%
21:00 -4°C° 0 mm 4 mps 752 mmHg 84%
22:00 -5°C° 0 mm 4 mps 752 mmHg 86%
23:00 -5°C° 0 mm 3 mps 753 mmHg 86%

27 Octubre, Martes

Tiempo Temperatura Precipitaciones Viento Presión Humedad
00:00 -5°C° 0.1 mm 8 mps 740 mmHg 88%
01:00 -5°C° 0.1 mm 9 mps 740 mmHg 86%
02:00 -5°C° 0 mm 9 mps 741 mmHg 85%
03:00 -5°C° 0 mm 8 mps 741 mmHg 84%
04:00 -5°C° 0 mm 8 mps 742 mmHg 83%
05:00 -5°C° 0 mm 8 mps 743 mmHg 83%
06:00 -6°C° 0 mm 8 mps 743 mmHg 83%
07:00 -6°C° 0 mm 8 mps 744 mmHg 83%
08:00 -6°C° 0 mm 8 mps 744 mmHg 82%
09:00 -6°C° 0 mm 8 mps 745 mmHg 81%
10:00 -6°C° 0 mm 8 mps 745 mmHg 80%
11:00 -5°C° 0 mm 8 mps 746 mmHg 80%
12:00 -4°C° 0 mm 7 mps 747 mmHg 79%
13:00 -4°C° 0 mm 7 mps 747 mmHg 78%
14:00 -4°C° 0 mm 7 mps 748 mmHg 78%
15:00 -4°C° 0 mm 6 mps 749 mmHg 78%
16:00 -4°C° 0 mm 6 mps 749 mmHg 78%
17:00 -4°C° 0 mm 6 mps 750 mmHg 78%
18:00 -4°C° 0 mm 6 mps 750 mmHg 78%
19:00 -4°C° 0 mm 5 mps 751 mmHg 78%
20:00 -5°C° 0 mm 5 mps 752 mmHg 81%
21:00 -4°C° 0 mm 4 mps 752 mmHg 84%
22:00 -5°C° 0 mm 4 mps 752 mmHg 86%
23:00 -5°C° 0 mm 3 mps 753 mmHg 86%

28 Octubre, Miércoles

Tiempo Temperatura Precipitaciones Viento Presión Humedad
00:00 -5°C° 0 mm 3 mps 753 mmHg 85%
01:00 -5°C° 0 mm 3 mps 753 mmHg 84%
02:00 -5°C° 0 mm 3 mps 754 mmHg 84%
03:00 -6°C° 0 mm 3 mps 754 mmHg 83%
04:00 -6°C° 0 mm 3 mps 755 mmHg 83%
05:00 -6°C° 0 mm 3 mps 755 mmHg 83%
06:00 -5°C° 0 mm 2 mps 755 mmHg 83%
07:00 -5°C° 0 mm 2 mps 756 mmHg 82%
08:00 -5°C° 0 mm 2 mps 756 mmHg 76%
09:00 -5°C° 0 mm 2 mps 756 mmHg 70%
10:00 -2°C° 0 mm 1 mps 757 mmHg 64%
11:00 -1°C° 0 mm 1 mps 757 mmHg 60%
12:00 -1°C° 0 mm 1 mps 757 mmHg 55%
13:00 0°C° 0 mm 1 mps 757 mmHg 51%
14:00 0°C° 0 mm 1 mps 757 mmHg 54%
15:00 0°C° 0 mm 1 mps 757 mmHg 57%
16:00 -2°C° 0 mm 0 mps 757 mmHg 60%
17:00 -2°C° 0 mm 0 mps 758 mmHg 61%
18:00 -2°C° 0 mm 0 mps 758 mmHg 62%
19:00 -1°C° 0 mm 1 mps 758 mmHg 63%
20:00 -1°C° 0 mm 1 mps 758 mmHg 65%
21:00 -1°C° 0 mm 1 mps 758 mmHg 67%
22:00 -2°C° 0 mm 1 mps 758 mmHg 69%
23:00 -4°C° 0 mm 2 mps 758 mmHg 71%

29 Octubre, Jueves

Tiempo Temperatura Precipitaciones Viento Presión Humedad
00:00 -4°C° 0 mm 2 mps 758 mmHg 74%
01:00 -4°C° 0 mm 2 mps 758 mmHg 76%
02:00 -4°C° 0 mm 2 mps 758 mmHg 77%
03:00 -3°C° 0 mm 2 mps 758 mmHg 78%
04:00 -4°C° 0 mm 3 mps 758 mmHg 79%
05:00 -4°C° 0 mm 3 mps 758 mmHg 78%
06:00 -4°C° 0 mm 3 mps 758 mmHg 78%
07:00 -3°C° 0 mm 4 mps 757 mmHg 77%
08:00 -2°C° 0 mm 4 mps 757 mmHg 75%
09:00 -2°C° 0 mm 5 mps 757 mmHg 72%
10:00 -1°C° 0 mm 5 mps 757 mmHg 70%
11:00 0°C° 0 mm 5 mps 757 mmHg 68%
12:00 0°C° 0 mm 5 mps 756 mmHg 66%
13:00 +1°C° 0 mm 5 mps 756 mmHg 64%
14:00 +1°C° 0 mm 5 mps 756 mmHg 67%
15:00 0°C° 0 mm 5 mps 756 mmHg 69%
16:00 0°C° 0 mm 4 mps 756 mmHg 71%
17:00 -1°C° 0 mm 4 mps 756 mmHg 73%
18:00 -1°C° 0 mm 4 mps 757 mmHg 75%
19:00 -2°C° 0 mm 4 mps 757 mmHg 77%
20:00 -2°C° 0 mm 4 mps 757 mmHg 78%
21:00 -2°C° 0 mm 4 mps 757 mmHg 78%
22:00 -2°C° 0 mm 4 mps 757 mmHg 79%
23:00 -2°C° 0 mm 4 mps 757 mmHg 80%
Mostrar más

Necesitamos Su Consentimiento

Meteoprog y nuestros Proveedores de Servicios pueden almacenar y acceder a sus datos personales como cookies, identificadores de dispositivo u otras tecnologías similares de su dispositivo y procesar dichos datos para personalizar contenido y anuncios, además de ofrecer funciones de redes sociales y analizar el tráfico.

  • Almacenar y/o acceder a información en su dispositivo

    Se puede almacenar o acceder a cookies, identificadores de dispositivo u otra información de su dispositivo para los fines anteriormente indicados.

  • Anuncios y contenido personalizados, medición de anuncios y contenido, percepciones del público, y desarrollo de productos

    Los anuncios y el contenido pueden personalizarse en base a su perfil. Se pueden añadir más datos para personalizar mejor los anuncios y contenidos. Se puede medir el rendimiento de los anuncios y contenidos. Se puede obtener la percepción sobre el público que ha visto los anuncios y contenidos. Dichos datos pueden usarse para desarrollar o mejorar la experiencia del usuario, sistemas y software.

Al hacer clic en ‘Estoy De Acuerdo’ usted permitirá el uso de las cookies, identificadores de dispositivo, balizas web u otras tecnologías similares indicadas. Su configuración puede cambiarse desde el navegador de su dispositivo.

Para ciertos fines, los intereses legítimos pueden ser considerados por encima del consentimiento. Puede leer más sobre ello en nuestra Política de Privacidad y Cookies.